Regional Weather Roundup
Issued by NWS Mt. Holly, NJ

Home | Current Version | Previous Version | Text Only | Print | Product List | Glossary On
Versions: 1 2 3 4 5 6 7 8 9 10 11 12 13 14 15 16 17 18 19 20 21 22 23 24 25 26 27
000
ASUS41 KPHI 210812
RWRPHI

REGIONAL WEATHER ROUNDUP
NATIONAL WEATHER SERVICE MOUNT HOLLY NJ
300 AM EST SUN JAN 21 2018

NOTE:  "FAIR" INDICATES FEW OR NO CLOUDS BELOW 12,000 FEET WITH NO
SIGNIFICANT WEATHER AND/OR OBSTRUCTIONS TO VISIBILITY.

 * = STATION DOES NOT REPORT PRECIPITATION (E.G. RAIN, SNOW, ETC.)
        OR FOG.

NJZ015>026-210900-
SOUTHERN NEW JERSEY

CITY           SKY/WX    TMP DP  RH WIND       PRES   REMARKS
POMONA         FAIR      29  24  82 CALM      30.12R
WILDWOOD*      FAIR      28  25  88 CALM      30.13R
MILLVILLE      FAIR      26  24  92 CALM      30.12R
WRIGHTSTOWN    FAIR      40  29  63 W5        30.08R
MOUNT HOLLY    FAIR      29  26  89 CALM      30.11R
TRENTON        FAIR      35  27  72 CALM      30.09R

$$
NJZ001>014-210900-
NORTHERN NEW JERSEY

CITY           SKY/WX    TMP DP  RH WIND       PRES   REMARKS
SUSSEX         FAIR      23  21  92 CALM      30.06R
ANDOVER*         N/A     22  21  96 CALM      30.07R
MORRISTOWN     FAIR      27  27 100 CALM      30.08S
NEWARK         FAIR      37  27  67 SW3       30.08R
TETERBORO      FAIR      33  27  78 CALM      30.07R
CALDWELL       FAIR      29  27  92 CALM      30.08S
SOMERVILLE     FAIR      26  25  96 CALM      30.07S
ALLAIRE*       FAIR      40  28  62 W8        30.10R WCI  34
TOMS RIVER*    FAIR      32  27  81 W5        30.11R WCI  27

$$
PAZ043-044-047-054-055-060>062-066>071-210900-
EASTERN PENNSYLVANIA

CITY           SKY/WX    TMP DP  RH WIND       PRES   REMARKS
PHILADELPHIA   FAIR      32  27  81 S5        30.13R WCI  27
NORTH PHILA    FAIR      36  28  73 SW3       30.12R
BLUE BELL*     FAIR      30  28  93 CALM      30.12R
DOYLESTOWN     FAIR      38  28  67 SW6       30.09R WCI  33
QUAKERTOWN*    FAIR      36  28  75 MISG      30.10R
PERKASIE*      FAIR      32  27  80 W5        30.09S WCI  27
POTTSTOWN      FAIR      32  26  78 CALM      30.12R
LANCASTER      FAIR      31  29  92 CALM      30.11R
COATESVILLE    FAIR      41  32  70 CALM      30.11S
READING        FAIR      31  28  89 CALM      30.10R
ALLENTOWN      FAIR      35  27  72 SW5       30.09R WCI  31
MOUNT POCONO   FAIR      34  27  75 W14       30.02R WCI  25
HAZLETON       FAIR      37  28  70 W9        30.08S WCI  31
LEHIGHTON      FAIR      23  23 100 CALM      30.10R
WILKES BARRE   FAIR      33  26  75 W3        30.07S

$$
DEZALL-MDZ008-012-015-019-020-210900-
DELAWARE AND EASTERN MARYLAND

CITY           SKY/WX    TMP DP  RH WIND       PRES   REMARKS
WILMINGTON     FAIR      31  28  89 CALM      30.13R
DOVER          FAIR      35  31  84 CALM      30.12R
GEORGETOWN     FAIR      32  25  75 CALM      30.13R
EASTON         FAIR      32  27  80 CALM      30.16R
ABERDEEN       FAIR     N/A N/A N/A S3        30.14R
OCEAN CITY     FAIR      31  28  89 NW6       30.13R WCI  25
WALLOPS ISLAND FAIR      39  33  79 NW6       30.14R WCI  35
CAMBRIDGE      CLEAR     28  25  86 CALM      30.13R
SALISBURY      FAIR      28  25  88 CALM      30.13R

$$
PAZ001-021-NYZ056-072-MDZ011-DCZ001-210900-
OTHER NEARBY LOCATIONS

CITY           SKY/WX    TMP DP  RH WIND       PRES   REMARKS
HARRISBURG     FAIR      26  24  92 CALM      30.12R
STATE COLLEGE  CLOUDY    40  32  75 W7        30.10S WCI  35
WILLIAMSPORT   FAIR      26  24  92 CALM      30.11R
BINGHAMTON     FAIR      31  24  75 W7        30.04R WCI  24
NEW YORK CITY  FAIR      44  27  51 VRB5      30.09R
BALTIMORE      FAIR      33  29  85 W3        30.13R
WASHINGTON DC  FAIR      36  31  82 CALM      30.14R

$$




USA.gov is the U.S. government's official web portal to all federal, state and local government web resources and services.